GW3407 Weather Reports


time (UTC)temp
F
wind
direction
speed
knots
gust
knots
rain 1hr
in
rain 24hr
in
rain mn
in
humidity
%
barometer
mb
20260906123638 69 0 1.7 3.5 0.00 0.00 0.00 99 1014.1
20260906123134 69 53 0.0 2.6 0.00 0.00 0.00 99 1014.5
20260906122632 69 270 0.0 2.6 0.00 0.00 0.00 99 1014.1
20260906122128 69 254 1.7 1.7 0.00 0.00 0.00 99 1014.2
20260906121624 69 216 1.7 2.6 0.00 0.00 0.00 99 1014.3
20260906121120 69 246 0.9 2.6 0.00 0.00 0.00 99 1014.2
20260906120616 69 248 2.6 2.6 0.00 0.00 0.00 99 1014.1
20260906120113 69 330 0.0 2.6 0.00 0.00 0.00 99 1014.1
20260906115612 69 315 1.7 4.3 0.00 0.00 0.00 99 1013.8
20260906115108 69 350 1.7 2.6 0.00 0.00 0.00 99 1013.7
20260906114601 69 270 0.0 1.7 0.00 0.00 0.00 99 1013.8
20260906114056 69 297 0.9 3.5 0.00 0.00 0.00 99 1013.7
20260906113556 69 276 0.0 2.6 0.00 0.00 0.00 99 1013.6
20260906113051 69 355 0.9 4.3 0.00 0.00 0.00 99 1013.6
20260906112546 70 278 0.9 4.3 0.00 0.00 0.00 99 1013.2
20260906112042 70 320 0.0 1.7 0.00 0.00 0.00 99 1013.4
20260906111542 70 52 2.6 3.5 0.00 0.00 0.00 99 1013.1
20260906111037 70 257 0.9 5.2 0.00 0.00 0.00 99 1013.2
20260906110537 70 289 0.0 2.6 0.00 0.00 0.00 99 1013.0
20260906110036 70 287 0.0 2.6 0.00 0.00 0.00 99 1012.8
20260906105531 70 289 1.7 2.6 0.00 0.00 0.00 99 1012.8
20260906105027 70 277 0.9 1.7 0.00 0.00 0.00 99 1012.7
20260906104526 70 325 0.9 1.7 0.00 0.00 0.00 99 1012.7
20260906104020 70 8 0.0 2.6 0.00 0.00 0.00 99 1012.9
20260906103519 70 48 1.7 4.3 0.00 0.00 0.00 99 1012.7
20260906103014 70 348 0.0 1.7 0.00 0.00 0.00 99 1012.6
20260906102509 70 270 0.0 1.7 0.00 0.00 0.00 99 1012.6
20260906102008 70 243 0.9 2.6 0.00 0.00 0.00 99 1012.5
20260906101503 70 120 1.7 2.6 0.00 0.00 0.00 99 1012.5
20260906100958 70 270 1.7 2.6 0.00 0.00 0.00 99 1012.5
20260906100453 70 16 0.0 2.6 0.00 0.00 0.00 99 1012.6
20260906095948 70 0 0.0 2.6 0.00 0.00 0.00 99 1012.5
20260906095443 70 180 0.0 1.7 0.00 0.00 0.00 99 1012.5
20260906094938 70 81 0.0 1.7 0.00 0.00 0.00 99 1012.4
20260906094426 70 4 0.0 1.7 0.00 0.00 0.00 99 1012.5
20260906093923 70 90 0.0 2.6 0.00 0.00 0.00 99 1012.4
20260906093419 70 3 2.6 2.6 0.00 0.00 0.00 99 1012.2
20260906092918 70 270 0.0 1.7 0.00 0.00 0.00 99 1012.6
20260906092413 70 334 0.0 1.7 0.00 0.00 0.00 99 1012.3
20260906091909 70 263 0.0 2.6 0.00 0.00 0.00 99 1012.5
20260906091404 70 353 0.0 2.6 0.00 0.00 0.00 99 1012.5
20260906090900 70 337 0.0 2.6 0.00 0.00 0.00 99 1012.5
20260906090359 69 270 0.0 1.7 0.00 0.00 0.00 99 1012.4
20260906085854 70 336 2.6 3.5 0.00 0.00 0.00 99 1012.2
20260906085347 70 254 0.0 2.6 0.00 0.00 0.00 99 1012.4
20260906084842 70 249 0.0 0.9 0.00 0.00 0.00 99 1012.4
20260906084336 69 286 0.0 1.7 0.00 0.00 0.00 99 1012.6
20260906083825 69 352 0.0 2.6 0.00 0.00 0.00 99 1012.4
20260906083321 69 247 2.6 3.5 0.00 0.00 0.00 99 1012.4
20260906082815 69 270 0.9 1.7 0.00 0.00 0.00 99 1012.5
20260906082310 69 264 0.0 1.7 0.00 0.00 0.00 99 1012.2
20260906081806 69 301 1.7 1.7 0.00 0.00 0.00 99 1012.3
20260906081302 69 270 1.7 1.7 0.00 0.00 0.00 99 1012.5
20260906080757 69 0 0.0 1.7 0.00 0.00 0.00 99 1012.5
20260906080253 68 286 0.0 1.7 0.00 0.00 0.00 99 1012.4
20260906075747 69 289 0.9 1.7 0.00 0.00 0.00 99 1012.4
20260906075241 69 246 0.9 1.7 0.00 0.00 0.00 99 1012.2
20260906074737 69 213 1.7 1.7 0.00 0.00 0.00 99 1012.4
20260906074236 69 270 0.0 1.7 0.00 0.00 0.00 99 1012.5
20260906073736 69 270 0.9 1.7 0.00 0.00 0.00 99 1012.4
20260906073231 69 261 0.0 0.9 0.00 0.00 0.00 99 1012.5
20260906072727 69 265 0.0 1.7 0.00 0.00 0.00 99 1012.4
20260906072222 69 255 0.0 1.7 0.00 0.00 0.00 99 1012.3
20260906071718 69 180 0.0 1.7 0.00 0.00 0.00 99 1012.3
20260906071218 69 270 0.0 1.7 0.00 0.00 0.00 99 1012.2
20260906070715 69 311 0.0 2.6 0.00 0.00 0.00 99 1012.4
20260906070210 69 221 0.0 1.7 0.00 0.00 0.00 99 1012.3
20260906065710 69 352 0.0 2.6 0.00 0.00 0.00 99 1012.4
20260906065205 69 90 0.0 2.6 0.00 0.00 0.00 99 1012.4
20260906064701 69 90 0.9 2.6 0.00 0.00 0.00 99 1012.5
20260906064155 69 206 0.0 0.9 0.00 0.00 0.00 99 1012.4
20260906063651 69 165 0.9 1.7 0.00 0.00 0.00 99 1012.3
20260906063146 69 99 0.0 1.7 0.00 0.00 0.00 99 1012.3
20260906062642 69 283 0.0 1.7 0.00 0.00 0.00 99 1012.4
20260906062140 69 262 0.0 2.6 0.00 0.00 0.00 99 1012.3
20260906061637 69 291 0.0 1.7 0.00 0.00 0.00 99 1012.5
20260906061137 69 262 0.0 0.9 0.00 0.00 0.00 99 1012.3
20260906060634 69 258 0.0 1.7 0.00 0.00 0.00 99 1012.6
20260906060131 69 286 0.0 0.9 0.00 0.00 0.00 99 1012.1
20260906055626 70 120 0.0 0.9 0.00 0.00 0.00 99 1012.3
20260906055121 69 90 0.0 1.7 0.00 0.00 0.00 99 1012.3
20260906054616 69 120 0.0 1.7 0.00 0.00 0.00 99 1012.3
20260906054111 70 307 0.0 1.7 0.00 0.00 0.00 99 1012.5
20260906053608 70 165 0.0 0.9 0.00 0.00 0.00 99 1012.5
20260906053103 70 203 0.0 1.7 0.00 0.00 0.00 99 1012.4
20260906052558 70 173 0.0 1.7 0.00 0.00 0.00 99 1012.4
20260906052055 70 263 0.0 0.9 0.00 0.00 0.00 99 1012.7
20260906051550 70 249 0.0 0.9 0.00 0.00 0.00 99 1012.4
20260906051046 70 99 0.0 1.7 0.00 0.00 0.00 99 1012.4
20260906050541 70 145 0.0 1.7 0.00 0.00 0.00 99 1012.4
20260906050036 70 180 0.0 0.9 0.00 0.00 0.00 99 1012.2
20260906045534 70 188 0.0 0.9 0.00 0.00 0.00 99 1012.0
20260906045030 70 251 0.0 0.9 0.00 0.00 0.00 99 1012.2
20260906044525 70 203 0.0 1.7 0.00 0.00 0.00 99 1012.0
20260906044021 70 198 0.0 1.7 0.00 0.00 0.00 99 1012.1
20260906043516 71 132 0.0 1.7 0.00 0.00 0.00 99 1012.0
20260906043013 70 291 0.9 2.6 0.00 0.00 0.00 99 1011.8
20260906042511 71 203 1.7 1.7 0.00 0.00 0.00 99 1012.0
20260906042011 71 192 0.9 0.9 0.00 0.00 0.00 99 1012.2
20260906041507 71 270 0.0 1.7 0.00 0.00 0.00 99 1011.8
20260906041007 71 162 0.0 2.6 0.00 0.00 0.00 99 1011.8
20260906040502 71 203 0.0 0.9 0.00 0.00 0.00 99 1012.1
20260906035957 71 166 0.9 1.7 0.00 0.41 0.41 99 1012.1
20260906035453 71 154 0.0 1.7 0.00 0.41 0.41 99 1012.1
20260906034948 71 180 0.0 1.7 0.00 0.41 0.41 99 1012.0
20260906034442 71 240 1.7 1.7 0.00 0.41 0.41 99 1012.0
20260906033932 71 184 0.0 2.6 0.00 0.41 0.41 99 1012.2
20260906033427 71 247 0.0 1.7 0.00 0.41 0.41 99 1012.1
20260906032922 71 114 1.7 3.5 0.00 0.41 0.41 99 1012.3
20260906032419 71 109 0.0 1.7 0.00 0.41 0.41 99 1011.9
20260906031913 71 215 0.0 1.7 0.00 0.41 0.41 99 1012.3
20260906031408 71 174 0.0 1.7 0.00 0.41 0.41 99 1011.9
20260906030903 71 123 0.0 1.7 0.00 0.41 0.41 99 1012.3
20260906030358 71 165 0.0 1.7 0.00 0.41 0.41 99 1012.1
20260906025852 72 214 0.0 1.7 0.00 0.41 0.41 99 1012.2
20260906025346 72 172 0.0 1.7 0.00 0.41 0.41 99 1012.4
20260906024845 72 203 0.0 1.7 0.00 0.41 0.41 99 1012.3
20260906024344 71 143 0.0 1.7 0.00 0.41 0.41 99 1012.5
20260906023840 71 168 0.0 1.7 0.00 0.41 0.41 99 1012.2
20260906023336 72 203 0.0 0.9 0.00 0.41 0.41 99 1012.4
20260906022831 72 102 0.0 2.6 0.00 0.41 0.41 99 1012.4
20260906022326 72 180 0.0 2.6 0.00 0.41 0.41 99 1012.4
20260906021822 72 66 0.0 1.7 0.00 0.41 0.41 99 1012.3
20260906021321 72 180 0.0 0.9 0.00 0.41 0.41 99 1012.5
20260906020821 72 71 0.0 0.9 0.00 0.41 0.41 99 1012.2
20260906020321 72 180 0.0 2.6 0.00 0.41 0.41 99 1012.3
20260906015816 72 278 0.0 2.6 0.00 0.41 0.41 99 1012.2
20260906015315 73 103 0.9 1.7 0.00 0.41 0.41 99 1012.1
20260906014814 73 114 0.0 1.7 0.00 0.41 0.41 99 1012.0
20260906014310 73 279 0.0 2.6 0.00 0.41 0.41 99 1012.0
20260906013806 73 220 0.0 1.7 0.00 0.41 0.41 99 1011.9
20260906013301 73 63 0.0 0.9 0.00 0.41 0.41 99 1011.8
20260906012756 73 165 0.0 0.9 0.00 0.41 0.41 99 1011.9
20260906012252 73 109 0.0 0.9 0.00 0.41 0.41 99 1011.8
20260906011747 73 198 0.0 0.9 0.00 0.41 0.41 99 1011.5
20260906011246 73 175 0.0 0.9 0.00 0.41 0.41 99 1011.7
20260906010741 73 114 0.0 1.7 0.00 0.41 0.41 99 1011.3
20260906010238 73 203 0.0 1.7 0.00 0.41 0.41 99 1011.5
20260906005733 73 228 0.0 2.6 0.00 0.41 0.41 99 1011.4
20260906005231 73 151 0.0 1.7 0.00 0.41 0.41 99 1011.2
20260906004726 74 195 0.0 1.7 0.00 0.41 0.41 99 1011.2
20260906004221 74 172 0.0 0.9 0.00 0.41 0.41 99 1011.3
20260906003715 74 111 0.0 0.9 0.00 0.41 0.41 99 1011.5
20260906003211 74 251 0.0 0.9 0.00 0.41 0.41 99 1011.4
20260906002711 74 120 0.9 1.7 0.00 0.41 0.41 99 1011.2
20260906002206 75 220 0.0 1.7 0.00 0.41 0.41 99 1011.4
20260906001701 75 180 0.9 1.7 0.00 0.41 0.41 98 1011.4
20260906001201 75 114 0.0 1.7 0.00 0.41 0.41 98 1011.3
20260906000657 75 121 0.0 1.7 0.00 0.41 0.41 98 1011.3
20260906000152 76 188 0.0 1.7 0.00 0.41 0.41 97 1011.6
20260905235651 76 114 0.0 0.9 0.00 0.41 0.41 96 1011.4
20260905235146 76 270 0.0 1.7 0.00 0.41 0.41 96 1011.4
20260905234641 77 160 0.0 0.9 0.00 0.41 0.41 95 1011.6
20260905234137 77 187 0.0 0.9 0.00 0.41 0.41 95 1011.7
20260905233632 78 102 0.0 1.7 0.00 0.41 0.41 94 1011.7
20260905233131 78 90 0.0 0.9 0.00 0.41 0.41 94 1011.5
20260905232627 79 254 0.9 1.7 0.00 0.41 0.41 93 1011.4
20260905232118 80 293 1.7 1.7 0.00 0.41 0.41 91 1011.3
20260905231618 80 261 0.0 0.9 0.00 0.41 0.41 90 1011.4
20260905231113 80 198 0.0 1.7 0.00 0.41 0.41 89 1011.5
20260905230609 80 297 0.0 1.7 0.00 0.41 0.41 89 1011.6
20260905230107 81 246 0.9 1.7 0.00 0.41 0.41 88 1011.5
20260905225601 81 286 0.0 2.6 0.00 0.41 0.41 86 1011.6
20260905225055 81 275 1.7 2.6 0.00 0.41 0.41 83 1011.6
20260905224550 82 249 2.6 2.6 0.00 0.41 0.41 81 1011.6
20260905224049 82 279 0.0 2.6 0.00 0.41 0.41 81 1011.3
20260905223547 84 286 0.0 2.6 0.00 0.41 0.41 79 1011.4
20260905223042 84 286 1.7 2.6 0.00 0.41 0.41 79 1011.5
20260905222537 84 253 0.0 2.6 0.00 0.41 0.41 75 1011.5
20260905222032 84 270 1.7 2.6 0.00 0.41 0.41 75 1011.5
20260905221528 83 270 0.0 2.6 0.00 0.41 0.41 77 1011.7
20260905221024 83 281 1.7 3.5 0.00 0.41 0.41 78 1011.5
20260905220520 83 301 2.6 2.6 0.00 0.41 0.41 81 1011.6
20260905220015 83 270 0.0 2.6 0.00 0.41 0.41 80 1011.5
20260905215510 82 245 2.6 2.6 0.00 0.41 0.41 79 1011.4
20260905215006 83 247 1.7 2.6 0.00 0.41 0.41 80 1011.5
20260905214501 83 237 0.0 1.7 0.00 0.41 0.41 80 1011.5
20260905213956 83 279 0.9 2.6 0.00 0.41 0.41 78 1011.6
20260905213452 84 262 0.0 2.6 0.00 0.41 0.41 79 1011.5
20260905212947 84 346 0.0 1.7 0.00 0.41 0.41 76 1011.5
20260905212442 83 240 1.7 3.5 0.00 0.41 0.41 78 1011.2
20260905211941 83 251 1.7 5.2 0.00 0.41 0.41 77 1011.3
20260905211436 83 270 1.7 3.5 0.00 0.41 0.41 77 1011.3
20260905210926 84 252 2.6 2.6 0.00 0.41 0.41 77 1011.1
20260905210421 85 297 0.0 4.3 0.00 0.41 0.41 73 1011.1
20260905205920 86 26 0.0 2.6 0.00 0.41 0.41 73 1011.2
20260905205415 86 306 0.9 2.6 0.00 0.41 0.41 73 1011.2
20260905204914 85 29 0.9 3.5 0.00 0.41 0.41 74 1011.2
20260905204410 85 287 1.7 3.5 0.00 0.41 0.41 73 1011.3
20260905203909 86 339 2.6 2.6 0.00 0.41 0.41 71 1011.4
20260905203405 87 248 2.6 3.5 0.00 0.41 0.41 72 1011.2
20260905202900 86 203 0.0 2.6 0.00 0.41 0.41 72 1011.5
20260905202355 86 281 1.7 3.5 0.00 0.41 0.41 73 1011.3
20260905201850 87 214 0.0 2.6 0.00 0.41 0.41 72 1011.4
20260905201345 85 270 2.6 3.5 0.00 0.41 0.41 73 1011.5
20260905200839 85 256 2.6 2.6 0.00 0.41 0.41 73 1011.4
20260905200336 85 270 0.9 3.5 0.00 0.41 0.41 73 1011.6
20260905195833 85 328 0.0 2.6 0.00 0.41 0.41 71 1011.8
20260905195329 84 123 0.0 1.7 0.00 0.41 0.41 73 1011.9
20260905194825 83 294 0.0 2.6 0.00 0.41 0.41 76 1012.0
20260905194325 84 216 1.7 4.3 0.00 0.41 0.41 73 1011.9
20260905193824 83 286 0.0 2.6 0.00 0.41 0.41 77 1012.0
20260905193319 84 221 1.7 2.6 0.00 0.41 0.41 72 1012.3
20260905192815 84 297 0.0 3.5 0.00 0.41 0.41 71 1012.3
20260905192311 85 187 0.9 5.2 0.00 0.41 0.41 72 1012.2
20260905191810 85 331 0.0 3.5 0.00 0.41 0.41 74 1012.1
20260905191308 86 78 1.7 1.7 0.00 0.41 0.41 70 1012.4
20260905190807 86 285 0.0 2.6 0.00 0.41 0.41 71 1012.4
20260905190307 85 172 0.0 1.7 0.00 0.41 0.41 74 1012.5
20260905185805 84 48 1.7 4.3 0.00 0.41 0.41 74 1012.6
20260905185301 84 291 0.9 2.6 0.00 0.41 0.41 74 1012.7
20260905184754 84 2 3.5 3.5 0.00 0.41 0.41 73 1012.5
20260905184253 83 286 0.9 4.3 0.00 0.41 0.41 74 1012.6
20260905183747 84 110 3.5 5.2 0.00 0.41 0.41 74 1012.5
20260905183243 84 90 0.0 2.6 0.00 0.41 0.41 77 1012.7
20260905182742 84 5 3.5 3.5 0.00 0.41 0.41 72 1012.7
20260905182241 83 112 0.0 2.6 0.00 0.41 0.41 74 1012.8
20260905181737 83 78 2.6 3.5 0.00 0.41 0.41 77 1012.9
20260905181236 82 160 0.0 1.7 0.00 0.41 0.41 74 1012.9
20260905180731 83 110 2.6 2.6 0.00 0.41 0.41 76 1012.8
20260905180226 83 261 0.9 2.6 0.00 0.41 0.41 76 1012.9
20260905175721 82 297 0.0 2.6 0.00 0.41 0.41 78 1013.0
20260905175216 82 49 3.5 3.5 0.00 0.41 0.41 77 1013.2
20260905174710 82 0 1.7 2.6 0.00 0.41 0.41 77 1013.0
20260905174201 84 98 0.0 3.5 0.00 0.41 0.41 77 1013.1
20260905173656 82 78 1.7 2.6 0.00 0.41 0.41 77 1013.1
20260905173151 84 351 1.7 3.5 0.00 0.41 0.41 78 1013.2
20260905172651 83 253 0.0 2.6 0.00 0.41 0.41 78 1013.4
20260905172145 81 265 0.0 4.3 0.00 0.41 0.41 78 1013.5
20260905171641 83 355 1.7 2.6 0.00 0.41 0.41 80 1013.5
20260905171137 82 262 0.0 1.7 0.00 0.41 0.41 84 1013.4
20260905170633 82 243 1.7 3.5 0.00 0.41 0.41 83 1013.6
20260905170129 81 209 0.9 2.6 0.00 0.41 0.41 85 1013.7
20260905165623 81 248 1.7 3.5 0.00 0.41 0.41 84 1013.7
20260905165118 79 354 0.9 6.1 0.00 0.41 0.41 83 1013.6
20260905164613 80 220 1.7 3.5 0.00 0.41 0.41 86 1013.7
20260905164107 81 114 2.6 4.3 0.00 0.41 0.41 86 1013.4
20260905163604 80 123 2.6 5.2 0.00 0.41 0.41 84 1013.8
20260905163100 79 352 2.6 3.5 0.00 0.41 0.41 85 1013.8
20260905162556 79 7 0.9 3.5 0.00 0.41 0.41 86 1014.0
20260905162054 79 8 1.7 4.3 0.00 0.41 0.41 87 1013.9
20260905161549 77 112 6.1 6.1 0.00 0.41 0.41 89 1014.2
20260905161047 79 357 2.6 3.5 0.00 0.41 0.41 86 1014.1
20260905160546 79 139 0.0 2.6 0.00 0.41 0.41 87 1014.7
20260905160046 78 140 1.7 3.5 0.00 0.41 0.41 88 1014.4
20260905155545 78 0 0.0 2.6 0.00 0.41 0.41 88 1014.3
20260905155044 77 5 0.0 2.6 0.00 0.41 0.41 90 1014.3
20260905154539 77 358 0.0 3.5 0.00 0.41 0.41 92 1014.5
20260905154034 76 139 1.7 3.5 0.00 0.41 0.41 92 1014.3
20260905153530 77 253 0.0 1.7 0.00 0.41 0.41 96 1014.2
20260905153030 75 285 0.0 1.7 0.00 0.41 0.41 97 1014.2
20260905152525 73 243 0.0 1.7 0.00 0.41 0.41 96 1014.0
20260905152020 73 229 0.0 2.6 0.00 0.41 0.41 99 1014.0
20260905151515 73 184 0.0 2.6 0.00 0.41 0.41 99 1014.4
20260905151010 73 270 3.5 6.1 0.00 0.41 0.41 99 1014.1
20260905150505 73 337 0.0 2.6 0.00 0.41 0.41 99 1014.2
20260905150002 73 221 4.3 5.2 0.00 0.41 0.41 99 1013.9
20260905145457 72 259 2.6 7.0 0.00 0.41 0.41 99 1013.6
20260905144951 72 250 1.7 4.3 0.00 0.41 0.41 99 1012.8
20260905144446 73 285 0.0 2.6 0.00 0.41 0.41 99 1012.8
20260905143945 72 264 0.0 3.5 0.00 0.41 0.41 99 1012.7
20260905143444 72 253 2.6 3.5 0.00 0.41 0.41 99 1013.1
20260905142939 72 255 0.0 3.5 0.00 0.41 0.41 99 1013.2
20260905142437 71 264 0.9 2.6 0.00 0.41 0.41 99 1013.4
20260905141933 71 270 0.0 3.5 0.00 0.41 0.41 99 1012.2
20260905141427 71 328 1.7 4.3 0.00 0.41 0.41 99 1012.7
20260905140924 71 234 0.9 2.6 0.00 0.41 0.41 99 1012.8
20260905140419 71 0 0.0 2.6 0.00 0.41 0.41 99 1013.0
20260905135917 71 128 1.7 2.6 0.00 0.41 0.41 99 1013.4
20260905135413 71 270 0.0 2.6 0.00 0.41 0.41 99 1013.6
20260905134909 71 231 0.0 2.6 0.00 0.41 0.41 99 1014.0
20260905134408 71 246 1.7 3.5 0.00 0.41 0.41 99 1014.3
20260905133902 71 250 3.5 3.5 0.00 0.41 0.41 99 1014.2
20260905133357 71 127 2.6 2.6 0.00 0.41 0.41 99 1013.7
20260905132856 72 270 0.0 2.6 0.00 0.41 0.41 99 1013.9
20260905132352 72 185 0.9 2.6 0.00 0.41 0.41 99 1014.0
20260905131852 72 117 0.0 2.6 0.02 0.41 0.41 99 1014.0
20260905131348 71 131 1.7 1.7 0.02 0.41 0.41 99 1014.4
20260905130843 71 144 0.0 2.6 0.02 0.40 0.40 99 1014.5
20260905130341 71 195 0.9 1.7 0.02 0.40 0.40 99 1014.5
20260905125837 70 297 0.0 2.6 0.00 0.40 0.40 99 1014.5
20260905125332 71 252 1.7 2.6 0.00 0.40 0.40 99 1014.6
20260905124828 71 169 1.7 1.7 0.00 0.40 0.40 99 1014.4
20260905124324 71 270 0.9 2.6 0.00 0.40 0.40 99 1014.8